• în Republica Moldova
  • Lista ţărilor
  • Pe 7 zile
  • Temperatura apei
  • Hartă satelitară
  • Meteo pe hartă
  • Widget-uri
  • user-avatar
    Intrare

    Meteo pe oră la Albany

    Astăzi, 16 Ianuarie, Miercuri

    Timp Temperatura Precipitaţii Vânt Presiune Umiditate
    00:00 +15°C° 0 mm 1 m/s 756 mmHg 81%
    01:00 +13°C° 0 mm 0 m/s 756 mmHg 82%
    02:00 +13°C° 0 mm 0 m/s 756 mmHg 83%
    03:00 +12°C° 0 mm 0 m/s 756 mmHg 84%
    04:00 +13°C° 0 mm 1 m/s 756 mmHg 85%
    05:00 +13°C° 0 mm 1 m/s 755 mmHg 86%
    06:00 +15°C° 0 mm 1 m/s 756 mmHg 77%
    07:00 +18°C° 0 mm 1 m/s 756 mmHg 68%
    08:00 +21°C° 0 mm 1 m/s 756 mmHg 57%
    09:00 +21°C° 0 mm 2 m/s 756 mmHg 52%
    10:00 +24°C° 0 mm 2 m/s 755 mmHg 47%
    11:00 +25°C° 0 mm 3 m/s 755 mmHg 43%
    12:00 +25°C° 0 mm 4 m/s 755 mmHg 44%
    13:00 +25°C° 0 mm 4 m/s 755 mmHg 45%
    14:00 +25°C° 0 mm 5 m/s 754 mmHg 48%
    15:00 +23°C° 0 mm 5 m/s 754 mmHg 51%
    16:00 +23°C° 0 mm 5 m/s 754 mmHg 54%
    17:00 +22°C° 0 mm 5 m/s 754 mmHg 57%
    18:00 +21°C° 0 mm 4 m/s 754 mmHg 63%
    19:00 +19°C° 0 mm 4 m/s 754 mmHg 69%
    20:00 +18°C° 0 mm 3 m/s 755 mmHg 77%
    21:00 +17°C° 0 mm 3 m/s 755 mmHg 79%
    22:00 +17°C° 0 mm 3 m/s 755 mmHg 82%
    23:00 +17°C° 0 mm 2 m/s 755 mmHg 84%

    Mâine, 17 Ianuarie, Joi

    Timp Temperatura Precipitaţii Vânt Presiune Umiditate
    00:00 +16°C° 0 mm 3 m/s 755 mmHg 86%
    01:00 +16°C° 0 mm 3 m/s 754 mmHg 87%
    02:00 +16°C° 0 mm 3 m/s 754 mmHg 89%
    03:00 +14°C° 0 mm 3 m/s 754 mmHg 89%
    04:00 +14°C° 0 mm 3 m/s 754 mmHg 90%
    05:00 +14°C° 0 mm 3 m/s 755 mmHg 91%
    06:00 +17°C° 0 mm 4 m/s 755 mmHg 83%
    07:00 +19°C° 0 mm 4 m/s 755 mmHg 76%
    08:00 +21°C° 0 mm 4 m/s 755 mmHg 68%
    09:00 +21°C° 0.1 mm 4 m/s 755 mmHg 67%
    10:00 +21°C° 0.1 mm 4 m/s 756 mmHg 65%
    11:00 +21°C° 0.1 mm 5 m/s 756 mmHg 64%
    12:00 +21°C° 0.1 mm 5 m/s 756 mmHg 64%
    13:00 +21°C° 0.1 mm 5 m/s 756 mmHg 63%
    14:00 +21°C° 0.1 mm 5 m/s 756 mmHg 63%
    15:00 +21°C° 0 mm 5 m/s 756 mmHg 63%
    16:00 +21°C° 0 mm 5 m/s 756 mmHg 62%
    17:00 +21°C° 0 mm 5 m/s 756 mmHg 62%
    18:00 +20°C° 0 mm 4 m/s 756 mmHg 67%
    19:00 +19°C° 0 mm 4 m/s 757 mmHg 71%
    20:00 +17°C° 0 mm 4 m/s 757 mmHg 75%
    21:00 +17°C° 0 mm 3 m/s 758 mmHg 76%
    22:00 +17°C° 0 mm 3 m/s 758 mmHg 76%
    23:00 +16°C° 0 mm 3 m/s 759 mmHg 77%

    Poimâine, 18 Ianuarie, Vineri

    Timp Temperatura Precipitaţii Vânt Presiune Umiditate
    00:00 +16°C° 0 mm 2 m/s 759 mmHg 78%
    01:00 +15°C° 0 mm 2 m/s 759 mmHg 80%
    02:00 +14°C° 0 mm 1 m/s 759 mmHg 81%
    03:00 +14°C° 0 mm 1 m/s 759 mmHg 82%
    04:00 +14°C° 0 mm 1 m/s 759 mmHg 82%
    05:00 +14°C° 0 mm 1 m/s 759 mmHg 83%
    06:00 +16°C° 0 mm 1 m/s 760 mmHg 74%
    07:00 +19°C° 0 mm 1 m/s 760 mmHg 66%
    08:00 +21°C° 0 mm 1 m/s 760 mmHg 57%
    09:00 +22°C° 0 mm 1 m/s 761 mmHg 51%
    10:00 +24°C° 0 mm 2 m/s 761 mmHg 45%
    11:00 +26°C° 0 mm 2 m/s 761 mmHg 39%
    12:00 +26°C° 0 mm 3 m/s 761 mmHg 40%
    13:00 +26°C° 0 mm 4 m/s 760 mmHg 40%
    14:00 +26°C° 0 mm 4 m/s 760 mmHg 41%
    15:00 +26°C° 0 mm 4 m/s 760 mmHg 44%
    16:00 +25°C° 0 mm 5 m/s 760 mmHg 48%
    17:00 +23°C° 0 mm 5 m/s 760 mmHg 51%
    18:00 +21°C° 0 mm 4 m/s 760 mmHg 57%
    19:00 +20°C° 0 mm 4 m/s 760 mmHg 64%
    20:00 +18°C° 0 mm 4 m/s 761 mmHg 70%
    21:00 +17°C° 0 mm 4 m/s 761 mmHg 73%
    22:00 +17°C° 0 mm 4 m/s 761 mmHg 77%
    23:00 +15°C° 0 mm 4 m/s 762 mmHg 81%

    19 Ianuarie, Sâmbătă

    Timp Temperatura Precipitaţii Vânt Presiune Umiditate
    00:00 +15°C° 0 mm 4 m/s 761 mmHg 82%
    01:00 +15°C° 0 mm 4 m/s 761 mmHg 84%
    02:00 +14°C° 0 mm 4 m/s 761 mmHg 85%
    03:00 +14°C° 0 mm 4 m/s 761 mmHg 86%
    04:00 +14°C° 0 mm 4 m/s 761 mmHg 87%
    05:00 +14°C° 0 mm 4 m/s 761 mmHg 88%
    06:00 +17°C° 0 mm 4 m/s 761 mmHg 76%
    07:00 +19°C° 0 mm 4 m/s 761 mmHg 64%
    08:00 +21°C° 0 mm 4 m/s 761 mmHg 52%
    09:00 +25°C° 0 mm 4 m/s 761 mmHg 43%
    10:00 +28°C° 0 mm 3 m/s 760 mmHg 34%
    11:00 +31°C° 0 mm 3 m/s 760 mmHg 26%
    12:00 +33°C° 0 mm 4 m/s 760 mmHg 27%
    13:00 +33°C° 0 mm 4 m/s 759 mmHg 28%
    14:00 +34°C° 0 mm 5 m/s 758 mmHg 29%
    15:00 +32°C° 0 mm 5 m/s 758 mmHg 35%
    16:00 +30°C° 0 mm 5 m/s 758 mmHg 40%
    17:00 +28°C° 0 mm 6 m/s 758 mmHg 46%
    18:00 +26°C° 0 mm 5 m/s 758 mmHg 55%
    19:00 +23°C° 0 mm 5 m/s 758 mmHg 64%
    20:00 +21°C° 0 mm 4 m/s 758 mmHg 73%
    21:00 +20°C° 0 mm 4 m/s 758 mmHg 75%
    22:00 +20°C° 0 mm 4 m/s 759 mmHg 77%
    23:00 +19°C° 0 mm 3 m/s 759 mmHg 80%

    20 Ianuarie, Duminică

    Timp Temperatura Precipitaţii Vânt Presiune Umiditate
    00:00 +19°C° 0 mm 3 m/s 758 mmHg 81%
    01:00 +19°C° 0 mm 3 m/s 758 mmHg 83%
    02:00 +18°C° 0 mm 2 m/s 757 mmHg 84%
    03:00 +18°C° 0 mm 2 m/s 757 mmHg 85%
    04:00 +18°C° 0 mm 2 m/s 757 mmHg 85%
    05:00 +18°C° 0 mm 2 m/s 757 mmHg 86%
    06:00 +21°C° 0 mm 2 m/s 757 mmHg 77%
    07:00 +24°C° 0 mm 3 m/s 757 mmHg 68%
    08:00 +26°C° 0 mm 3 m/s 757 mmHg 59%
    09:00 +29°C° 0 mm 3 m/s 757 mmHg 50%
    10:00 +33°C° 0 mm 3 m/s 756 mmHg 41%
    11:00 +36°C° 0 mm 3 m/s 756 mmHg 33%
    12:00 +36°C° 0 mm 4 m/s 755 mmHg 34%
    13:00 +35°C° 0 mm 4 m/s 754 mmHg 36%
    14:00 +35°C° 0 mm 5 m/s 754 mmHg 38%
    15:00 +34°C° 0 mm 5 m/s 754 mmHg 41%
    16:00 +32°C° 0 mm 4 m/s 753 mmHg 43%
    17:00 +29°C° 0 mm 3 m/s 753 mmHg 46%
    18:00 +27°C° 0 mm 3 m/s 754 mmHg 55%
    19:00 +25°C° 0 mm 3 m/s 754 mmHg 64%
    20:00 +23°C° 0 mm 2 m/s 754 mmHg 74%
    21:00 +21°C° 0 mm 2 m/s 754 mmHg 79%
    22:00 +21°C° 0 mm 2 m/s 754 mmHg 84%
    23:00 +20°C° 0 mm 2 m/s 754 mmHg 89%

    21 Ianuarie, Luni

    Timp Temperatura Precipitaţii Vânt Presiune Umiditate
    00:00 +20°C° 0 mm 2 m/s 754 mmHg 91%
    01:00 +19°C° 0 mm 2 m/s 753 mmHg 92%
    02:00 +19°C° 0 mm 2 m/s 753 mmHg 93%
    03:00 +19°C° 0 mm 3 m/s 753 mmHg 94%
    04:00 +19°C° 0 mm 3 m/s 753 mmHg 94%
    05:00 +18°C° 0 mm 3 m/s 753 mmHg 95%
    06:00 +20°C° 0 mm 4 m/s 754 mmHg 86%
    07:00 +21°C° 0 mm 4 m/s 754 mmHg 77%
    08:00 +22°C° 0 mm 4 m/s 755 mmHg 68%
    09:00 +23°C° 0 mm 5 m/s 755 mmHg 62%
    10:00 +25°C° 0 mm 5 m/s 755 mmHg 55%
    11:00 +26°C° 0 mm 6 m/s 755 mmHg 49%
    12:00 +26°C° 0 mm 6 m/s 755 mmHg 55%
    13:00 +24°C° 0 mm 6 m/s 755 mmHg 61%
    14:00 +23°C° 0 mm 6 m/s 755 mmHg 67%
    15:00 +22°C° 0.1 mm 6 m/s 755 mmHg 71%
    16:00 +21°C° 0.1 mm 7 m/s 755 mmHg 75%
    17:00 +20°C° 0.1 mm 7 m/s 756 mmHg 79%
    18:00 +18°C° 0.1 mm 8 m/s 757 mmHg 79%
    19:00 +17°C° 0.1 mm 8 m/s 757 mmHg 78%
    20:00 +17°C° 0.1 mm 8 m/s 758 mmHg 78%
    21:00 +16°C° 0.1 mm 8 m/s 758 mmHg 76%
    22:00 +16°C° 0.1 mm 7 m/s 759 mmHg 75%
    23:00 +16°C° 0.1 mm 7 m/s 759 mmHg 73%
    Arată mai mult